Weather in Garachico

Spain     28°22′30″N   16°45′50″W
temp.,
°C
wind,
m/s
gust,
m/s
humid.,
%
clouds,
%
prec.,
mm/h
press.,
hPa
HPBL,
m
15 august, mon
mon1501:00+22ene898626 0.0 1018638
04:00+22ene9108247 0.0 1017648
07:00+22ene898182 0.0 1017663
10:00+22ene8108271 0.0 1017585
13:00+22ne898499 0.0 1018610
16:00+22ne798463 0.0 1017552
19:00+22ne798211 0.0 1016538
22:00+22ene78825 0.0 1017533
16 august, tue
tue1601:00+22ene798212 0.0 1018537
04:00+22ene798526 0.0 1016560
07:00+22ene688550 0.0 1016625
10:00+22ene678226 0.0 1017401
13:00+22e558718 0.0 1017310
16:00+23ne358728 0.1 1016434
19:00+23ene568416 0.1 1016485
22:00+22e55878 0.0 1017341
17 august, wed
wed1701:00+22ese65886 0.1 1016290
04:00+22e678933 0.1 1015504
07:00+21e778610 0.2 1015517
10:00+22ene798645 0.1 1016669
13:00+22ene911852 0.4 1016728
16:00+22ene10128719 0.2 1015746
19:00+22ene9108463 0.3 1016775
22:00+22ene9107556 0.1 10171002
18 august, thu
thu1801:00+22ene9117927 0.1 10171032
04:00+22ene9107778 0.1 10151156
07:00+21ene10107371 0.1 10151173
10:00+21ene9107678 0.1 10161133
13:00+22ne9107226 0.1 10161051
16:00+22ne910740 0.0 1015907
19:00+22ne9107321 0.0 1015932
22:00+22ene997357 0.0 1016963
19 august, fri
fri1901:00+22ene887462 0.0 1016896
04:00+22ene787376 0.0 1015899
07:00+22ene787642 0.0 1015672
10:00+22ene67753 0.0 1016632
13:00+22ne88760 0.0 1016621
16:00+22ne78782 0.0 1015631
19:00+22ne788111 0.0 1015629
22:00+22ene788410 0.0 1016524